Flag for South Africa Weather past 2 weeks in Bloemfontein, South Africa

Now
45 °F

Quite cool.


Feels Like: 45 °F
Forecast: 36 / 67 °F
Wind: 1 mph from North

Location: Bloemfontein Airport

Current Time: Jul 3, 2015 at 10:20:40 PM

Latest Report: Jul 3, 2015 at 9:00 PM


Visibility: N/A

Pressure: 30.36 "Hg (25.60 "Hg at 1397m altitude)

Humidity: 61%

Dew point: 32 °F

Location of BloemfonteinLocation

Historic Weather in Bloemfontein — Graph

°F

Bloemfontein temperature yesterday

Maximum temperature yesterday: 68 °F (at 2:00 PM)
Minimum temperature yesterday: 30 °F (at 7:00 AM)
Average temperature yesterday: 46 °F

Past Weeks' High & Low Weather Summary

 TemperatureHumidityPressure
High70 °F (Jun 26, 3:00 PM)100% (Jun 22, 7:00 AM)30.57 "Hg (Jun 22, 7:00 AM)
Low27 °F (Jun 19, 6:00 AM)19% (Jun 23, 5:00 PM)30.12 "Hg (Jun 24, 4:00 PM)
Average46 °F63%30.35 "Hg
* Reported Jun 18 9:00 PM — Jul 3 9:00 PM, Bloemfontein, Weather by CustomWeather, © 2015

Note: Actual official high and low records may vary slightly from our data, if they occured in-between our weather recording intervals... More about our weather records

Advertising

Bloemfontein weather history for previous 24 hours

 ConditionsComfort  
Time TempWeatherWind HumidityBarometerVisibility
9:00 PM
Fri, Jul 3
45 °FQuite cool.1 mph61%30.36 "HgN/A
8:00 PM46 °FClear.5 mph53%30.36 "Hg10 mi
7:00 PM52 °FClear.5 mph38%30.36 "Hg10 mi
6:00 PM57 °FPassing clouds.6 mph31%30.33 "HgN/A
5:00 PM63 °FClear.3 mph24%30.36 "Hg10 mi
4:00 PM66 °FPassing clouds.6 mph22%30.33 "HgN/A
3:00 PM68 °FPassing clouds.7 mph21%30.33 "HgN/A
2:00 PM68 °FSunny.7 mph20%30.36 "Hg10 mi
1:00 PM68 °FPassing clouds.10 mph23%30.39 "HgN/A
12:00 PM64 °FPassing clouds.7 mph28%30.42 "HgN/A
11:00 AM59 °FPassing clouds.5 mph39%30.42 "HgN/A
10:00 AM50 °FPassing clouds.5 mph58%30.45 "HgN/A
9:00 AM43 °FClear.No wind71%30.42 "Hg5 mi
8:00 AM37 °FLight fog.No wind81%30.45 "HgN/A
7:00 AM30 °FFog.1 mph93%30.42 "HgN/A
6:00 AM32 °FClear.No wind87%30.39 "Hg10 mi
5:00 AM32 °FClear.No wind93%30.39 "Hg10 mi
4:00 AM34 °FChilly.No wind87%30.39 "HgN/A
3:00 AM34 °FChilly.1 mph87%30.39 "Hg6 mi
2:00 AM34 °FChilly.No wind93%30.42 "HgN/A
1:00 AM37 °FChilly.2 mph81%30.39 "Hg4 mi
12:00 AM37 °FChilly.No wind81%30.39 "Hg5 mi
11:00 PM
Thu, Jul 2
39 °FChilly.No wind75%30.42 "HgN/A
10:00 PM41 °FQuite cool.1 mph76%30.39 "HgN/A
Weather by CustomWeather, © 2015

See weather overviewHow to use our weather pages